Weather History for Marion, OH

Change the Weather History Date:

Tuesday, September 17, 2013

  Actual Average (KDLZ) Record (KDLZ)
Temperature  
Mean Temperature 54 °F -  
Max Temperature 72 °F 74 °F 94 °F (1955)
Min Temperature 39 °F 51 °F 35 °F (1937)
Degree Days  
Heating Degree Days 10    
Growing Degree Days 4 (Base 50)    
Moisture  
Dew Point 42 °F    
Average Humidity 81    
Maximum Humidity 100    
Minimum Humidity 36    
Precipitation  
Precipitation 0.00 in - - ()
Sea Level Pressure  
Sea Level Pressure 30.34 in    
Wind  
Wind Speed 1 mph (East)    
Max Wind Speed 8 mph    
Max Gust Speed -    
Visibility 5 miles    
Events Fog    
Averages and records for this station are not official NWS values.
T = Trace of Precipitation, MM = Missing Value Source: NWS Daily Summary

Daily Weather History Graph

Daily Weather History Graph

Search for Another Location

Airport:

Trip Planner

Search our weather history database for the weather conditions in past years. The results will help you decide how hot, cold, wet, or windy it might be!

Date:

Astronomy

Sep. 17, 2013 Rise Set
Actual Time 7:15 AM EDT 7:37 PM EDT
Civil Twilight 6:47 AM EDT 8:04 PM EDT
Nautical Twilight 6:15 AM EDT 8:36 PM EDT
Astronomical Twilight 5:42 AM EDT 9:09 PM EDT
Moon 6:24 PM EDT (9/17) 5:08 AM EDT (9/17)
Length of Visible Light 13h 17m
Length of Day
12h 22m
Waxing Gibbous, 96% of the Moon is Illuminated
Sep 17
Waxing Gibbous
Sep 19
Full
Sep 26
Last Quarter
Oct 4
New
Oct 11
First Quarter

Hourly Weather History & Observations

Time (EDT) Temp. Windchill Dew Point Humidity Pressure Visibility Wind Dir Wind Speed Gust Speed Precip Events Conditions
12:53 AM 48.0 °F - 45.0 °F 89% 30.35 in 9.0 mi Calm Calm - N/A   Clear
1:53 AM 45.0 °F - 43.0 °F 93% 30.36 in 9.0 mi Calm Calm - N/A   Clear
2:53 AM 44.1 °F - 43.0 °F 96% 30.37 in 5.0 mi Calm Calm - N/A   Clear
3:53 AM 43.0 °F - 41.0 °F 93% 30.37 in 6.0 mi Calm Calm - N/A   Clear
4:19 AM 42.8 °F - 41.0 °F 93% 30.37 in 1.2 mi Calm Calm - N/A   Clear
4:21 AM 42.8 °F - 41.0 °F 93% 30.37 in 0.5 mi Calm Calm - N/A Fog Fog
4:53 AM 39.9 °F 37.8 °F 39.9 °F 100% 30.38 in 2.0 mi NNE 3.5 mph - N/A   Scattered Clouds
4:56 AM 39.2 °F - 39.2 °F 100% 30.37 in 5.0 mi Calm Calm - N/A   Mostly Cloudy
5:01 AM 41.0 °F 39.0 °F 39.2 °F 93% 30.37 in 1.2 mi NNE 3.5 mph - N/A   Mostly Cloudy
5:08 AM 41.0 °F - 39.2 °F 93% 30.37 in 0.5 mi Calm Calm - N/A Fog Fog
5:16 AM 41.0 °F - 41.0 °F 100% 30.37 in 1.2 mi Calm Calm - N/A   Mostly Cloudy
5:35 AM 41.0 °F 39.0 °F 39.2 °F 93% 30.36 in 0.2 mi NNE 3.5 mph - N/A Fog Fog
5:53 AM 41.0 °F - 39.9 °F 96% 30.38 in 0.8 mi Calm Calm - N/A   Mist
6:03 AM 41.0 °F - 39.2 °F 93% 30.37 in 1.0 mi Calm Calm - N/A   Mist
6:10 AM 42.8 °F - 41.0 °F 93% 30.37 in 1.2 mi Calm Calm - N/A   Mostly Cloudy
6:12 AM 41.0 °F - 41.0 °F 100% 30.37 in 0.8 mi Calm Calm - N/A   Mist
6:27 AM 41.0 °F - 41.0 °F 100% 30.37 in 1.2 mi Calm Calm - N/A   Scattered Clouds
6:31 AM 41.0 °F - 41.0 °F 100% 30.37 in 1.0 mi Calm Calm - N/A   Mist
6:38 AM 41.0 °F - 39.2 °F 93% 30.37 in 0.2 mi Calm Calm - N/A Fog Fog
6:53 AM 39.9 °F 37.8 °F 39.0 °F 97% 30.38 in 0.8 mi North 3.5 mph - N/A   Mist
7:19 AM 39.2 °F - 39.2 °F 100% 30.37 in 1.5 mi Calm Calm - N/A   Scattered Clouds
7:22 AM 39.2 °F - 39.2 °F 100% 30.37 in 4.0 mi Calm Calm - N/A   Scattered Clouds
7:37 AM 39.2 °F 37.0 °F 39.2 °F 100% 30.37 in 1.5 mi NE 3.5 mph - N/A   Partly Cloudy
7:40 AM 39.2 °F 37.0 °F 39.2 °F 100% 30.37 in 0.8 mi NE 3.5 mph - N/A   Clear
7:50 AM 39.2 °F - 39.2 °F 100% 30.37 in 1.5 mi Calm Calm - N/A   Clear
7:53 AM 41.0 °F - 39.9 °F 96% 30.39 in 3.0 mi Calm Calm - N/A   Clear
8:53 AM 50.0 °F - 46.0 °F 86% 30.39 in 8.0 mi East 4.6 mph - N/A   Clear
9:53 AM 55.0 °F - 46.0 °F 72% 30.38 in 10.0 mi East 6.9 mph - N/A   Clear
10:53 AM 59.0 °F - 42.1 °F 53% 30.38 in 10.0 mi ESE 8.1 mph - N/A   Clear
11:53 AM 62.1 °F - 41.0 °F 46% 30.37 in 10.0 mi Variable 3.5 mph - N/A   Clear
12:53 PM 64.0 °F - 37.9 °F 38% 30.35 in 10.0 mi Calm Calm - N/A   Clear
1:53 PM 66.9 °F - 39.0 °F 36% 30.33 in 10.0 mi Calm Calm - N/A   Clear
2:53 PM 70.0 °F - 46.0 °F 42% 30.31 in 10.0 mi Variable 4.6 mph - N/A   Clear
3:53 PM 70.0 °F - 43.0 °F 38% 30.28 in 10.0 mi South 3.5 mph - N/A   Clear
4:53 PM 70.0 °F - 44.1 °F 39% 30.26 in 10.0 mi Calm Calm - N/A   Clear
5:53 PM 69.1 °F - 44.1 °F 40% 30.25 in 10.0 mi SSE 4.6 mph - N/A   Clear
6:53 PM 66.0 °F - 46.9 °F 50% 30.25 in 10.0 mi ESE 3.5 mph - N/A   Clear
7:53 PM 59.0 °F - 48.9 °F 69% 30.24 in 10.0 mi East 6.9 mph - N/A   Clear
8:53 PM 57.9 °F - 48.0 °F 70% 30.24 in 10.0 mi ESE 4.6 mph - N/A   Clear
9:53 PM 55.9 °F - 48.0 °F 75% 30.24 in 10.0 mi ESE 4.6 mph - N/A   Clear
10:53 PM 54.0 °F - 48.0 °F 80% 30.24 in 10.0 mi ESE 4.6 mph - N/A   Clear
11:53 PM 53.1 °F - 48.0 °F 83% 30.23 in 10.0 mi Calm Calm - N/A   Clear